Date,TemperatureHighF,TemperatureAvgF,TemperatureLowF,DewpointHighF,DewpointAvgF,DewpointLowF,HumidityHigh,HumidityAvg,HumidityLow,PressureMaxIn,PressureMinIn,WindSpeedMaxMPH,WindSpeedAvgMPH,GustSpeedMaxMPH,PrecipitationSumIn
2012-9-15,82,80,75,61,55,51,58,42,36,29.36,29.27,8,1,8,0.00
2012-9-16,86,75,60,66,62,57,97,66,38,29.30,29.18,7,1,8,0.00
2012-9-17,73,67,64,69,66,63,98,96,81,29.24,28.94,12,1,12,2.24
2012-9-18,73,65,51,68,62,51,98,92,71,29.18,28.88,14,1,14,2.80
2012-9-19,70,57,45,55,48,42,98,75,44,29.30,29.18,11,1,13,0.00
2012-9-20,79,67,51,61,55,46,98,70,42,29.30,0.00,13,2,14,0.00
2012-9-21,81,65,52,64,55,47,98,76,33,29.27,29.12,10,1,10,0.00
2012-9-22,84,67,51,63,56,46,98,71,41,29.27,29.12,14,2,14,0.00
2012-9-23,73,57,44,54,43,31,98,66,28,29.39,29.27,8,1,8,0.00
2012-9-24,70,53,38,48,41,37,98,71,33,29.42,29.30,11,1,11,0.00
2012-9-25,58,45,43,53,44,42,98,97,71,29.39,29.33,0,0,0,0.00
2012-9-26,82,72,58,62,57,53,98,63,40,29.39,29.30,11,2,11,0.00
2012-9-27,86,66,52,64,58,51,98,78,38,29.39,29.27,11,1,11,0.00
2012-9-28,84,68,57,66,61,56,98,81,42,29.30,29.18,11,1,11,0.04
2012-9-29,80,66,54,68,62,54,98,87,54,29.21,29.06,8,0,8,0.20
2012-9-30,72,60,50,61,56,50,98,89,52,29.12,28.97,5,0,5,0.00
2012-10-1,72,64,57,68,62,57,98,94,79,28.97,28.77,16,2,16,0.71
2012-10-2,70,66,60,68,62,56,98,86,64,29.15,28.80,14,3,14,0.04
2012-10-3,74,63,54,62,57,50,98,84,45,29.36,29.15,7,1,8,0.00
2012-10-4,77,61,51,60,54,51,98,82,44,29.47,29.36,9,1,9,0.00
2012-10-5,78,62,50,60,55,50,98,82,42,29.42,29.18,8,1,8,0.00
2012-10-6,65,56,51,64,54,48,98,91,77,29.27,29.15,8,0,9,0.08
2012-10-7,57,49,42,50,44,35,98,83,48,29.33,29.21,10,0,10,0.20
2012-10-8,50,47,43,48,45,42,98,94,87,29.39,29.27,9,0,9,0.28
2012-10-9,62,51,44,50,46,43,98,86,54,29.33,29.21,7,0,7,0.00
2012-10-10,67,51,40,54,48,39,98,89,58,29.39,29.24,8,0,8,0.00
2012-10-11,68,52,36,53,43,36,98,78,35,29.47,29.39,8,1,8,0.00
2012-10-12,63,58,54,59,56,52,98,94,83,29.47,29.39,12,0,12,0.47
2012-10-13,75,60,50,60,53,49,98,81,44,29.50,29.36,13,2,15,0.00
2012-10-14,73,61,49,60,55,48,98,83,60,29.39,29.12,17,3,18,0.00
2012-10-15,71,60,45,62,52,39,98,77,37,29.15,29.09,14,1,14,0.94
2012-10-16,68,51,40,53,44,38,98,80,36,29.21,29.03,9,0,9,0.00
2012-10-17,73,57,43,50,45,40,98,69,33,29.12,28.91,18,2,18,0.00
2012-10-18,67,58,42,59,50,41,98,77,46,29.00,28.91,17,3,17,0.12
2012-10-19,68,53,38,46,38,32,98,64,30,29.00,28.88,17,3,17,0.00
2012-10-20,66,52,39,48,41,35,98,70,40,29.18,28.97,10,0,10,0.00
2012-10-21,68,50,37,48,42,36,98,79,39,29.33,29.18,7,1,7,0.00
2012-10-22,74,55,41,52,46,41,98,78,36,29.42,29.30,7,0,7,0.00
2012-10-23,76,57,44,54,48,43,98,77,34,29.36,29.27,10,1,10,0.00
2012-10-24,76,56,41,54,48,40,98,79,39,29.39,29.24,8,0,8,0.00
2012-10-25,77,58,44,59,51,43,98,81,45,29.30,29.18,9,0,9,0.00
2012-10-26,77,61,50,60,54,49,98,81,42,29.24,29.09,7,0,7,0.00
2012-10-27,57,51,48,56,47,42,98,84,73,29.15,29.09,11,1,12,0.00
2012-10-28,49,46,43,45,41,35,97,82,71,29.15,29.03,9,2,10,0.08
2012-10-29,52,44,38,35,28,20,73,54,40,29.15,28.97,10,2,11,0.00
2012-10-30,55,45,37,29,25,21,60,45,36,28.97,28.85,13,2,13,0.00
2012-10-31,59,43,27,32,24,19,93,52,27,29.09,28.97,12,1,12,0.00
2012-11-1,59,39,24,34,26,18,98,66,26,29.18,29.09,10,1,10,0.00
2012-11-2,70,50,33,43,34,28,88,60,34,29.21,29.06,11,1,11,0.00
2012-11-3,70,50,32,51,39,31,98,70,35,29.30,29.12,9,1,10,0.00
2012-11-4,63,53,34,54,44,33,98,73,42,29.27,29.12,10,1,10,0.00
2012-11-5,57,42,29,40,32,27,98,71,35,29.30,29.12,11,1,11,0.00
2012-11-6,56,46,41,44,40,30,98,83,48,29.18,29.09,10,1,10,0.43
2012-11-7,46,43,38,45,42,37,98,97,92,29.24,29.06,7,0,7,0.31
2012-11-8,56,40,30,42,33,28,98,81,38,29.39,29.24,8,0,8,0.00
2012-11-9,62,41,28,42,33,27,98,79,35,29.47,29.36,7,0,7,0.00
2012-11-10,67,44,30,43,35,29,98,77,33,29.53,29.39,10,1,10,0.00
2012-11-11,68,50,30,48,40,30,98,73,38,29.56,29.39,17,2,17,0.00
2012-11-12,64,54,32,58,49,31,98,82,63,29.56,29.30,20,4,20,0.51
2012-11-13,49,36,26,34,26,20,98,71,37,29.59,29.50,15,1,15,0.00
2012-11-14,53,38,25,36,29,24,98,73,41,29.56,29.44,9,0,9,0.00
2012-11-15,57,42,31,38,33,29,98,76,39,29.47,29.39,8,0,8,0.00
2012-11-16,57,38,26,38,29,23,98,74,33,29.50,29.42,9,1,9,0.00
2012-11-17,59,39,26,37,29,25,98,74,34,29.62,29.50,8,1,8,0.00
2012-11-18,60,39,26,38,29,25,98,74,32,29.59,29.47,8,0,8,0.00
2012-11-19,62,41,26,40,32,25,98,75,35,29.50,29.36,7,0,7,0.00
2012-11-20,64,46,33,43,37,32,98,77,37,29.36,29.24,8,1,8,0.00
2012-11-21,66,48,35,45,39,35,98,76,37,29.36,29.27,8,0,9,0.00
2012-11-22,65,44,30,45,36,30,98,79,37,29.42,29.33,10,1,10,0.00
2012-11-23,64,42,30,47,37,30,98,86,47,29.36,29.21,11,1,11,0.00
2012-11-24,45,32,22,32,21,14,98,67,39,29.39,29.30,11,1,11,0.00
2012-11-25,53,33,18,25,21,18,98,70,29,29.36,29.21,10,2,10,0.00
2012-11-26,63,44,24,45,29,23,98,62,27,29.36,29.24,10,2,10,0.04
2012-11-27,47,44,38,46,41,32,98,90,76,29.44,29.27,10,1,10,0.24
2012-11-28,47,36,25,34,29,22,98,77,41,29.62,29.44,8,1,8,0.00
2012-11-29,57,35,21,36,28,20,98,80,39,29.62,29.44,10,1,10,0.00
2012-11-30,59,39,24,43,34,24,98,85,51,29.53,29.39,11,1,11,0.00
2012-12-1,66,45,32,46,38,32,98,82,45,29.53,29.42,12,1,12,0.00
2012-12-2,68,48,34,54,41,33,98,80,45,29.50,29.39,14,2,14,0.00
2012-12-3,69,50,36,50,43,36,98,80,42,29.47,29.36,15,2,15,0.00
2012-12-4,70,56,42,56,47,41,98,76,43,29.44,29.33,15,2,15,0.00
2012-12-5,59,51,39,54,45,35,98,83,46,29.42,29.30,10,1,10,0.04
2012-12-6,56,47,38,43,40,37,98,78,54,29.33,29.24,5,0,5,0.00
2012-12-7,62,51,40,49,46,39,98,82,62,29.27,29.12,10,1,10,0.00
2012-12-8,67,56,47,56,51,46,98,84,59,29.18,29.09,13,2,15,0.00
2012-12-9,68,60,54,58,54,51,98,83,64,29.21,29.06,13,3,13,0.00
2012-12-10,63,54,38,57,50,31,98,88,68,29.09,28.83,18,4,18,0.91
2012-12-11,38,34,30,32,27,24,92,76,63,29.36,29.09,10,2,10,0.00
2012-12-12,46,35,26,29,25,20,93,69,41,29.44,29.36,14,1,14,0.00
2012-12-13,51,34,22,33,28,22,98,81,47,29.53,29.42,8,1,8,0.00
2012-12-14,54,35,23,39,30,22,98,84,44,29.53,29.36,7,1,7,0.00
2012-12-15,59,46,33,46,38,32,98,76,48,29.36,29.15,14,3,14,0.04
2012-12-16,56,52,48,55,51,46,98,95,84,29.18,28.97,14,3,14,1.18
2012-12-17,58,52,45,55,50,45,98,95,84,29.00,28.80,13,3,13,0.16
2012-12-18,54,44,32,50,36,28,98,77,39,29.15,28.85,9,1,9,0.00
2012-12-19,60,42,29,43,36,28,98,83,45,29.27,29.15,9,1,9,0.00
2012-12-20,52,43,36,51,38,22,98,83,50,29.18,28.77,19,4,19,0.98
2012-12-21,44,34,23,23,16,9,55,47,40,29.36,29.03,21,5,21,0.00
2012-12-22,44,27,16,23,16,9,98,66,36,29.50,29.36,7,1,7,0.00
2012-12-23,53,36,18,39,24,18,98,68,38,29.36,29.18,11,1,11,0.08
2012-12-24,53,47,40,52,46,37,98,97,86,29.18,29.00,13,2,13,0.59
2012-12-25,47,44,42,46,44,41,98,96,89,29.21,28.91,8,1,8,0.71
2012-12-26,53,41,32,50,35,23,98,80,63,29.18,28.56,22,6,22,0.43
2012-12-27,36,32,26,26,24,21,91,71,56,29.30,29.18,10,1,10,0.00
2012-12-28,40,33,25,37,29,23,98,87,62,29.30,28.94,14,1,14,0.24
2012-12-29,40,36,31,38,32,22,98,86,68,29.44,28.91,13,2,13,0.00
2012-12-30,39,29,22,23,18,13,98,63,43,29.65,29.44,11,2,11,0.00
2012-12-31,48,33,20,32,24,19,98,74,40,29.56,29.24,11,1,11,0.00
2013-1-1,49,44,39,49,42,30,98,93,63,29.27,29.12,8,1,9,1.10